FW4175 Weather Reports


Display with metric or nautical units.
time (UTC)temp
F
wind
direction
speed
MPH
gust
MPH
rain 1hr
in
rain 24hr
in
rain mn
in
humidity
%
barometer
mb
20260505024547 68 227 8.0 10.0 0.00 0.00 0.00 46 1002.1
20260505024045 67 252 3.0 11.0 0.00 0.00 0.00 51 1001.9
20260505023542 66 217 5.0 8.0 0.00 0.00 0.00 63 1001.5
20260505023039 66 309 1.0 5.0 0.00 0.00 0.00 67 1001.6
20260505022537 66 219 5.0 9.0 0.00 0.00 0.00 66 1001.4
20260505022034 66 189 4.0 14.0 0.00 0.00 0.00 66 1001.3
20260505021530 67 191 7.0 13.0 0.00 0.00 0.00 67 1001.3
20260505021027 67 175 10.0 14.0 0.00 0.00 0.00 67 1001.2
20260505020526 67 172 6.0 16.0 0.00 0.00 0.00 67 1001.0
20260505020024 67 188 9.0 15.0 0.00 0.00 0.00 67 1001.0
20260505015521 67 166 6.0 14.0 0.00 0.00 0.00 67 1000.6
20260505015018 67 179 4.0 14.0 0.00 0.00 0.00 67 1000.6
20260505014515 67 158 6.0 15.0 0.00 0.00 0.00 65 1000.3
20260505014012 67 169 5.0 21.0 0.00 0.00 0.00 65 1000.2
20260505013509 67 150 12.0 19.0 0.00 0.00 0.00 63 1000.3
20260505013006 68 157 11.0 22.0 0.00 0.00 0.00 60 999.9
20260505012504 68 170 5.0 17.0 0.00 0.00 0.00 59 999.9
20260505012001 68 160 10.0 15.0 0.00 0.00 0.00 57 999.9
20260505011456 68 173 7.0 16.0 0.00 0.00 0.00 56 1000.0
20260505010954 69 169 11.0 20.0 0.00 0.00 0.00 55 1000.0
20260505010449 69 156 7.0 20.0 0.00 0.00 0.00 54 999.9
20260505005946 70 170 9.0 13.0 0.00 0.00 0.00 49 999.8
20260505005442 71 142 6.0 16.0 0.00 0.00 0.00 47 999.5
20260505004940 72 161 6.0 13.0 0.00 0.00 0.00 47 999.2
20260505004437 72 170 4.0 9.0 0.00 0.00 0.00 47 998.7
20260505003934 72 199 9.0 11.0 0.00 0.00 0.00 46 998.8
20260505003431 72 180 6.0 14.0 0.00 0.00 0.00 45 998.7
20260505002927 72 192 8.0 11.0 0.00 0.00 0.00 45 998.7
20260505002423 72 212 6.0 12.0 0.00 0.00 0.00 44 998.7
20260505001922 73 180 10.0 15.0 0.00 0.00 0.00 43 998.6
20260505001419 73 204 4.0 15.0 0.00 0.00 0.00 43 998.5
20260505000916 74 161 4.0 12.0 0.00 0.00 0.00 42 998.3
20260505000414 74 178 4.0 10.0 0.00 0.00 0.00 41 998.2
20260504235910 74 218 4.0 9.0 0.00 0.00 0.00 43 998.4
20260504235408 74 193 10.0 12.0 0.00 0.00 0.00 42 998.5
20260504234904 74 165 3.0 14.0 0.00 0.00 0.00 42 998.5
20260504234402 74 207 8.0 17.0 0.00 0.00 0.00 41 998.6
20260504233858 74 198 5.0 16.0 0.00 0.00 0.00 42 998.5
20260504233353 74 190 5.0 15.0 0.00 0.00 0.00 43 998.2
20260504232850 74 194 8.0 13.0 0.00 0.00 0.00 44 998.6
20260504232348 73 186 9.0 15.0 0.00 0.00 0.00 44 998.9
20260504231844 73 180 6.0 23.0 0.00 0.00 0.00 44 999.2
20260504231341 73 205 8.0 17.0 0.00 0.00 0.00 45 998.8
20260504230837 74 159 13.0 24.0 0.00 0.00 0.00 43 999.2
20260504230335 74 203 17.0 19.0 0.00 0.00 0.00 41 999.5
20260504225833 74 170 9.0 22.0 0.00 0.00 0.00 42 999.3
20260504225329 75 183 16.0 16.0 0.00 0.00 0.00 39 999.5
20260504224827 77 206 6.0 37.0 0.00 0.00 0.00 38 999.4
20260504224324 78 209 20.0 33.0 0.00 0.00 0.00 36 999.3
20260504223821 78 194 9.0 24.0 0.00 0.00 0.00 36 999.1
20260504223316 79 198 7.0 15.0 0.00 0.00 0.00 35 999.2
20260504222813 78 207 13.0 16.0 0.00 0.00 0.00 35 999.6
20260504222310 77 182 9.0 20.0 0.00 0.00 0.00 35 999.1
20260504221808 78 205 15.0 17.0 0.00 0.00 0.00 35 999.3
20260504221304 78 189 15.0 25.0 0.00 0.00 0.00 35 999.3
20260504220801 79 168 8.0 20.0 0.00 0.00 0.00 35 999.1
20260504220258 79 204 8.0 25.0 0.00 0.00 0.00 34 999.3
20260504215756 80 177 5.0 16.0 0.00 0.00 0.00 35 999.4
20260504215252 79 168 7.0 16.0 0.00 0.00 0.00 34 999.4
20260504214748 79 213 17.0 17.0 0.00 0.00 0.00 33 999.7
20260504214244 79 188 5.0 12.0 0.00 0.00 0.00 32 999.4
20260504213741 79 203 14.0 15.0 0.00 0.00 0.00 33 999.4
20260504213237 78 192 9.0 25.0 0.00 0.00 0.00 32 999.5
20260504212735 79 198 11.0 20.0 0.00 0.00 0.00 31 999.5
20260504212231 79 186 8.0 16.0 0.00 0.00 0.00 31 999.8
20260504211729 78 181 5.0 19.0 0.00 0.00 0.00 32 999.6
20260504211225 79 213 15.0 22.0 0.00 0.00 0.00 30 1000.0
20260504210723 80 158 10.0 19.0 0.00 0.00 0.00 32 999.7
20260504210220 80 207 10.0 19.0 0.00 0.00 0.00 31 1000.1
20260504205716 79 218 8.0 18.0 0.00 0.00 0.00 31 1000.0
20260504205214 80 175 7.0 25.0 0.00 0.00 0.00 31 1000.0
20260504204712 79 260 13.0 25.0 0.00 0.00 0.00 31 1000.1
20260504204210 79 196 15.0 18.0 0.00 0.00 0.00 30 1000.0
20260504203709 79 327 4.0 20.0 0.00 0.00 0.00 33 1000.2
20260504203207 79 185 5.0 14.0 0.00 0.00 0.00 31 999.9
20260504202706 79 203 4.0 17.0 0.00 0.00 0.00 30 1000.5
20260504202204 78 201 14.0 22.0 0.00 0.00 0.00 30 1000.5
20260504201700 78 190 10.0 17.0 0.00 0.00 0.00 32 1000.3
20260504201158 78 202 14.0 24.0 0.00 0.00 0.00 32 1000.2
20260504200655 78 202 9.0 25.0 0.00 0.00 0.00 32 1000.5
20260504200152 79 215 2.0 13.0 0.00 0.00 0.00 34 1000.6
20260504195647 78 196 6.0 17.0 0.00 0.00 0.00 32 1000.6
20260504195144 78 203 8.0 17.0 0.00 0.00 0.00 32 1000.9
20260504194641 77 205 10.0 22.0 0.00 0.00 0.00 31 1000.8
20260504194137 78 242 9.0 28.0 0.00 0.00 0.00 31 1000.9
20260504193633 78 189 11.0 20.0 0.00 0.00 0.00 30 1000.9
20260504193131 78 201 16.0 22.0 0.00 0.00 0.00 31 1000.8
20260504192629 77 199 10.0 22.0 0.00 0.00 0.00 31 1001.2
20260504192127 77 196 26.0 28.0 0.00 0.00 0.00 32 1001.1
20260504191625 77 195 9.0 25.0 0.00 0.00 0.00 32 1001.2
20260504191121 77 184 14.0 26.0 0.00 0.00 0.00 32 1001.2
20260504190617 77 221 13.0 24.0 0.00 0.00 0.00 33 1001.5
20260504190114 76 195 15.0 22.0 0.00 0.00 0.00 32 1001.3
20260504185610 77 179 9.0 21.0 0.00 0.00 0.00 32 1001.3
20260504185107 77 156 11.0 18.0 0.00 0.00 0.00 36 1001.3
20260504184603 77 229 16.0 23.0 0.00 0.00 0.00 32 1001.3
20260504184058 76 201 8.0 16.0 0.00 0.00 0.00 33 1001.5
20260504183555 76 183 8.0 22.0 0.00 0.00 0.00 33 1001.7
20260504183053 76 166 8.0 16.0 0.00 0.00 0.00 35 1001.3
20260504182550 75 184 11.0 23.0 0.00 0.00 0.00 32 1001.6
20260504182048 75 199 5.0 19.0 0.00 0.00 0.00 32 1001.3
20260504181544 75 173 14.0 24.0 0.00 0.00 0.00 32 1001.5
20260504181043 75 230 18.0 20.0 0.00 0.00 0.00 34 1001.3
20260504180541 75 210 14.0 23.0 0.00 0.00 0.00 34 1001.5
20260504180040 75 182 8.0 21.0 0.00 0.00 0.00 33 1001.5
20260504175537 75 167 18.0 25.0 0.00 0.00 0.00 34 1001.6
20260504175034 75 193 9.0 17.0 0.00 0.00 0.00 34 1001.7
20260504174532 74 197 11.0 22.0 0.00 0.00 0.00 34 1001.6
20260504174028 74 211 9.0 32.0 0.00 0.00 0.00 35 1002.0
20260504173525 75 192 19.0 19.0 0.00 0.00 0.00 35 1001.6
20260504173022 74 226 14.0 20.0 0.00 0.00 0.00 34 1001.6
20260504172518 74 201 6.0 22.0 0.00 0.00 0.00 34 1002.0
20260504172015 73 179 12.0 24.0 0.00 0.00 0.00 33 1002.0
20260504171512 74 222 10.0 23.0 0.00 0.00 0.00 35 1002.2
20260504171009 74 226 6.0 19.0 0.00 0.00 0.00 36 1002.5
20260504170505 74 214 15.0 21.0 0.00 0.00 0.00 35 1002.3
20260504160425 71 169 5.0 26.0 0.00 0.00 0.00 42 1003.2
20260504150849 69 191 8.0 18.0 0.00 0.00 0.00 43 1003.7
20260504150345 69 163 7.0 15.0 0.00 0.00 0.00 44 1003.6
20260504141315 66 192 8.0 15.0 0.00 0.00 0.00 44 1004.2
20260504140812 66 164 9.0 14.0 0.00 0.00 0.00 45 1004.4
20260504140308 66 195 13.0 15.0 0.00 0.00 0.00 45 1004.3
20260504130737 60 167 4.0 8.0 0.00 0.00 0.00 58 1005.1
20260504130232 60 173 8.0 9.0 0.00 0.00 0.00 58 1005.2
20260504120156 54 177 7.0 9.0 0.00 0.00 0.00 68 1005.1
20260504110624 50 174 4.0 8.0 0.00 0.00 0.00 78 1005.5
20260504110120 49 178 4.0 9.0 0.00 0.00 0.00 78 1005.2
20260504100545 50 160 4.0 9.0 0.00 0.00 0.00 81 1005.4
20260504081939 51 141 1.0 4.0 0.00 0.00 0.00 80 1005.4
20260504081436 51 156 3.0 5.0 0.00 0.00 0.00 79 1005.5
20260504080932 52 176 4.0 6.0 0.00 0.00 0.00 77 1005.5
20260504080429 52 187 2.0 8.0 0.00 0.00 0.00 78 1005.5
20260504070356 54 201 2.0 6.0 0.00 0.00 0.00 74 1006.2
20260504050744 59 189 5.0 8.0 0.00 0.00 0.00 66 1007.0
20260504050241 59 164 4.0 10.0 0.00 0.00 0.00 66 1007.1
20260504045738 58 160 2.0 9.0 0.00 0.00 0.00 66 1007.1
20260504045233 58 191 3.0 8.0 0.00 0.00 0.00 66 1006.9
20260504044731 58 183 3.0 8.0 0.00 0.00 0.00 66 1007.1
20260504044228 58 179 4.0 7.0 0.00 0.00 0.00 66 1006.9
20260504043725 59 187 5.0 17.0 0.00 0.00 0.00 66 1007.0
20260504043222 58 227 2.0 11.0 0.00 0.00 0.00 67 1007.1
20260504042720 58 201 3.0 5.0 0.00 0.00 0.00 67 1007.0
20260504042216 58 203 1.0 7.0 0.00 0.00 0.00 66 1007.1
20260504041712 58 173 4.0 8.0 0.00 0.00 0.00 66 1007.0
20260504041208 58 148 2.0 8.0 0.00 0.00 0.00 66 1007.0
20260504040704 59 143 4.0 9.0 0.00 0.00 0.00 65 1007.0
20260504040202 59 153 3.0 7.0 0.00 0.00 0.00 65 1007.0
20260504035658 59 163 5.0 7.0 0.00 0.00 0.00 65 1007.1
20260504035156 59 169 4.0 7.0 0.00 0.00 0.00 65 1007.1
20260504034653 59 148 5.0 9.0 0.00 0.00 0.00 64 1007.3
20260504034150 59 151 4.0 9.0 0.00 0.00 0.00 64 1007.3
20260504033648 60 174 4.0 9.0 0.00 0.00 0.00 63 1007.2
20260504033145 60 159 5.0 11.0 0.00 0.00 0.00 63 1007.4
20260504032641 60 146 4.0 7.0 0.00 0.00 0.00 63 1007.2
20260504032138 60 173 5.0 9.0 0.00 0.00 0.00 62 1007.3
20260504031635 60 167 4.0 7.0 0.00 0.00 0.00 62 1007.4
20260504031132 60 167 8.0 8.0 0.00 0.00 0.00 62 1007.3
20260504030628 60 159 5.0 9.0 0.00 0.00 0.00 61 1007.4
20260504030125 60 173 3.0 9.0 0.00 0.00 0.00 61 1007.3
20260504025622 60 185 3.0 10.0 0.00 0.00 0.00 61 1007.2
20260504025119 60 157 6.0 11.0 0.00 0.00 0.00 61 1007.8